Flag for Tajikistan Weather past 2 weeks in Dushanbe, Tajikistan

Now
36 °F

Fog.


Feels Like: 36 °F
Forecast: 23 / 41 °F
Wind: No wind

Location: Dushanbe Airport

Current Time: Jan 26, 2015 at 2:28:36 PM

Latest Report: Jan 26, 2015 at 2:00 PM


Visibility: 2 mi

Pressure: 30.36 "Hg

Humidity: 65%

Dew point: 25 °F

Location of DushanbeLocation

Historic Weather in Dushanbe — Graph

°F

Dushanbe temperature yesterday

Maximum temperature yesterday: 34 °F (at 12:30 PM)
Minimum temperature yesterday: 28 °F (at 7:30 AM)
Average temperature yesterday: 32 °F

Past Weeks' High & Low Weather Summary

 TemperatureHumidityPressure
High59 °F (Jan 17, 2:30 PM)100% (Jan 11, 3:30 PM)30.51 "Hg (Jan 11, 3:30 PM)
Low28 °F (Jan 25, 7:30 AM)18% (Jan 17, 2:00 PM)29.98 "Hg (Jan 19, 7:30 PM)
Average40 °F78%30.23 "Hg
* Reported Jan 11 1:00 PM — Jan 26 1:30 PM, Dushanbe, Weather by CustomWeather, © 2014

Note: Actual official high and low records may vary slightly from our data, if they occured in-between our weather recording intervals... More about our weather records

Advertising

Dushanbe weather history for previous 24 hours

 ConditionsComfort  
Time TempWeatherWind HumidityBarometerVisibility
1:30 PM
Jan 26
34 °FFog.No wind70%30.36 "Hg2 mi
1:00 PM34 °FFog.No wind75%30.39 "Hg2 mi
12:30 PM34 °FFog.No wind70%30.39 "Hg2 mi
12:00 PM34 °FFog.1 mph70%30.39 "Hg2 mi
11:30 AM32 °FIce fog.1 mph75%30.39 "Hg2 mi
11:00 AM32 °FLight snow. Ice fog.1 mph75%30.39 "Hg2 mi
10:30 AM32 °FIce fog.3 mph75%30.39 "Hg2 mi
10:00 AM30 °FLight snow. Ice fog.3 mph80%30.39 "Hg2 mi
9:30 AM30 °FIce fog.1 mph86%30.39 "Hg2 mi
9:00 AM30 °FIce fog.1 mph86%30.39 "Hg1 mi
8:30 AM30 °FIce fog.1 mph80%30.36 "Hg2 mi
8:00 AM30 °FIce fog.1 mph86%30.36 "Hg1 mi
7:30 AM30 °FIce fog.No wind80%30.36 "Hg2 mi
6:30 AM30 °FIce fog.No wind86%30.33 "Hg2 mi
6:00 AM30 °FIce fog.No wind86%30.33 "Hg2 mi
5:30 AM30 °FIce fog.No wind86%30.33 "Hg2 mi
5:00 AM30 °FIce fog.1 mph86%30.33 "Hg2 mi
4:30 AM30 °FIce fog.1 mph93%30.33 "Hg1 mi
4:00 AM30 °FIce fog.No wind93%30.33 "Hg1 mi
3:30 AM30 °FIce fog.No wind86%30.33 "Hg1 mi
3:00 AM30 °FIce fog.No wind86%30.33 "Hg1 mi
2:30 AM30 °FIce fog.No wind86%30.33 "Hg1 mi
1:30 AM30 °FIce fog.1 mph86%30.36 "Hg2 mi
1:00 AM32 °FIce fog.No wind80%30.36 "Hg2 mi
12:30 AM32 °FIce fog.No wind80%30.36 "Hg2 mi
12:00 AM32 °FIce fog.No wind80%30.36 "Hg2 mi
11:30 PM
Jan 25
32 °FIce fog.No wind80%30.36 "Hg2 mi
11:00 PM32 °FIce fog.No wind87%30.36 "Hg2 mi
10:30 PM32 °FIce fog.1 mph87%30.36 "Hg2 mi
10:00 PM32 °FIce fog.3 mph87%30.39 "Hg2 mi
9:30 PM32 °FIce fog.1 mph80%30.39 "Hg2 mi
9:00 PM32 °FIce fog.No wind80%30.39 "Hg2 mi
8:30 PM32 °FIce fog.3 mph87%30.39 "Hg1 mi
8:00 PM32 °FIce fog.3 mph87%30.39 "Hg2 mi
7:30 PM32 °FIce fog.6 mph87%30.39 "Hg2 mi
7:00 PM34 °FFog.No wind75%30.39 "Hg2 mi
6:30 PM34 °FFog.3 mph75%30.36 "Hg3 mi
6:00 PM34 °FFog.No wind70%30.36 "Hg3 mi
5:30 PM34 °FFog.3 mph75%30.36 "Hg3 mi
5:00 PM34 °FFog.3 mph75%30.36 "Hg3 mi
4:30 PM34 °FFog.1 mph70%30.36 "Hg3 mi
4:00 PM34 °FFog.1 mph75%30.36 "Hg3 mi
3:30 PM34 °FFog.No wind70%30.36 "Hg3 mi
3:00 PM34 °FFog.No wind75%30.36 "Hg3 mi
2:30 PM34 °FFog.No wind75%30.36 "Hg3 mi
2:00 PM34 °FFog.1 mph70%30.36 "Hg3 mi
Weather by CustomWeather, © 2014

See weather overviewHow to use our weather pages